#timestamp,LO_Frequency,Hit,StdDev 
1551560415.1,286047004.1,P
1551560435.9,286047001.9,N
1551560455.7,286047003.7,Y
1551560475.5,286047001.9,P
1551560495.4,286047000.6,N
1551560515.2,286047001.6,N
1551560535.1,286047000.4,N
1551560536.0,286047000.4,N
1551560555.8,286047001.0,N
1551560575.6,286047005.7,Y
1551560595.5,286047002.4,P
1551560615.3,286047000.2,N
1551560635.1,286047000.4,N
1551560655.9,286047001.9,N
1551560675.7,286047001.1,N
1551560695.6,286046999.2,N
1551560715.4,286046998.1,N
1551560735.2,286047000.8,N
1551560755.1,286047000.6,N
1551560756.0,286047000.6,N
1551560775.8,286046999.6,N
1551560795.6,286046999.5,N
1551560815.5,286046996.5,Y
1551560835.3,286046997.4,P
1551560855.2,286046999.3,N
1551560875.0,286046999.2,N
1551560875.9,286046999.2,N
1551560895.7,286046996.5,Y
1551560915.6,286046997.0,P
1551560935.4,286046998.9,N
1551560955.3,286047003.9,P
1551560975.1,286047003.6,N
1551560976.0,286047003.6,N
1551560995.8,286047001.7,N
1551561015.7,286047004.2,N
1551561035.5,286047000.5,N
1551561055.3,286046999.1,N
1551561075.2,286046999.0,N
1551561095.0,286046999.4,N
1551561095.9,286046999.4,N
1551561115.8,286046998.9,N
1551561135.6,286046995.3,N
1551561155.4,286046995.2,N
1551561175.3,286046993.4,N
1551561195.1,286046992.5,N
1551561215.9,286046994.3,N
1551561235.7,286046993.6,N
1551561255.5,286046994.7,N
1551561275.4,286046993.8,N
1551561295.2,286046992.2,N
1551561315.0,286046992.9,N
1551561315.9,286046992.9,N
1551561335.8,286046995.8,N
1551561355.6,286046992.5,N
1551561375.5,286046994.7,N
1551561395.3,286046992.0,N
1551561415.1,286046990.3,N
1551561435.9,286046991.4,N
1551561455.7,286046989.6,N
1551561475.5,286046989.5,N
1551561495.4,286046991.3,N
1551561515.2,286046987.3,Y
1551561535.1,286046993.5,P
1551561536.0,286046993.5,P
1551561555.8,286046994.5,P
1551561575.6,286046994.0,Y
1551561595.5,286046999.2,P
1551561615.3,286046999.0,N
1551561635.2,286046999.5,N
1551561655.9,286046997.9,N
1551561675.7,286046995.7,N
1551561695.6,286046996.9,N
1551561715.4,286046999.0,N
1551561735.2,286046996.9,N
1551561755.1,286046995.0,N
1551561756.0,286046995.0,N
1551561775.8,286047002.6,N
1551561795.7,286046998.7,N
1551561815.5,286046998.7,N
1551561835.3,286046999.4,N
1551561855.2,286046995.2,N
1551561875.0,286046993.3,Y
1551561875.9,286046993.3,P
1551561895.8,286046998.6,N
1551561915.6,286046997.9,N
1551561935.4,286046995.4,N
1551561955.3,286046999.5,N
1551561975.1,286046996.8,N
1551561995.9,286046995.1,N
1551562015.7,286046995.8,N
1551562035.5,286046995.5,N
1551562055.4,286046994.9,N
1551562075.2,286046997.8,N
1551562095.0,286046995.7,N
1551562096.0,286046995.7,N
1551562115.8,286046995.5,N
1551562135.6,286046995.8,N
1551562155.5,286046995.9,N
1551562175.3,286046995.3,Y
1551562195.1,286046998.5,P
1551562215.9,286046998.1,N
1551562235.7,286047000.4,N
1551562255.6,286046998.4,N
1551562275.4,286046996.5,N
1551562295.2,286046999.2,N
1551562315.1,286046998.8,N
1551562316.0,286046998.8,N
1551562335.8,286047000.5,N
1551562355.6,286046998.7,N
1551562375.5,286046999.3,N
1551562395.3,286046998.7,N
1551562415.2,286047001.2,N
1551562435.9,286047000.5,N
1551562455.7,286046998.2,N
1551562475.6,286046999.4,N
1551562495.4,286046996.8,N
1551562515.3,286046999.6,N
1551562535.1,286046998.3,N
1551562536.0,286046998.3,N
1551562555.8,286047000.6,N
1551562575.7,286047000.1,N
1551562595.5,286047001.9,N
1551562615.4,286047000.2,N
1551562635.2,286047000.8,N
1551562655.0,286047000.9,N
1551562655.9,286047000.9,N
1551562675.8,286047000.2,N
1551562695.6,286046998.3,N
1551562715.4,286046998.4,N
1551562735.3,286046998.2,N
1551562755.1,286046998.1,N
1551562775.9,286046999.6,N
1551562795.7,286046998.8,N
1551562815.5,286046998.3,N
1551562835.4,286046998.9,N
1551562855.2,286046998.4,N
1551562875.1,286046999.0,N
1551562876.0,286046999.0,N
1551562895.8,286046999.5,N
1551562915.6,286047000.0,N
1551562935.5,286046999.8,N
1551562955.3,286047004.4,Y
1551562975.1,286047005.6,P
1551562995.9,286047004.0,N
1551563015.7,286047003.0,N
1551563035.6,286047003.7,N
1551563055.4,286047002.1,N
1551563075.2,286046998.2,N
1551563095.1,286047002.8,N
1551563096.0,286047002.8,N
1551563115.8,286047004.0,N
1551563135.7,286047001.4,N
1551563155.5,286047005.0,N
1551563175.3,286047007.2,Y
1551563195.2,286047004.2,P
1551563215.0,286047003.3,P
1551563215.9,286047003.3,P
1551563235.7,286047003.1,Y
1551563255.6,286047000.5,P
1551563275.4,286047000.4,N
1551563295.3,286047001.6,N
1551563315.1,286047002.3,N
1551563316.0,286047002.3,N
1551563335.8,286047003.4,Y
1551563355.7,286047002.8,P
1551563375.5,286047001.4,N
1551563395.4,286047005.9,P
1551563415.2,286047002.9,N
1551563435.0,286047002.2,N
1551563435.9,286047002.2,N
1551563455.8,286047003.5,N
1551563475.6,286047004.2,Y
1551563495.4,286047000.9,P
1551563515.3,286046998.9,N
1551563535.1,286046996.5,N
1551563555.9,286047002.1,N
1551563575.7,286046999.7,N
1551563595.5,286047000.2,N
1551563615.4,286047000.2,N
1551563635.2,286047000.5,N
1551563655.1,286046998.6,N
1551563656.0,286046998.6,N
1551563675.8,286047000.8,N
1551563695.6,286046998.3,N
1551563715.5,286046997.7,N
1551563735.3,286046997.1,N
1551563755.1,286046999.1,N
1551563775.9,286046996.8,N
1551563795.7,286046999.5,N
1551563815.6,286047002.7,N
1551563835.4,286046998.4,N
1551563855.2,286046999.2,N
1551563875.1,286046999.2,N
1551563876.0,286046999.2,N
1551563895.8,286047000.6,N
1551563915.7,286046999.1,N
1551563935.5,286046998.3,N
1551563955.3,286046999.0,N
1551563975.2,286046996.8,N
1551563995.0,286046999.0,N
1551563995.9,286046999.0,N
